Date String (YYYY-MM-DD hh:mm:ss) UTC,Instrument flags,Ambient pressure (hPa),Sample flow (lpm),Bypass flow (lpm),Sample temperature (°C),Ambient temperature (°C),ASC tube jacket temperature (°C),LED temperature (°C),Box temperature (°C),Sample RH (%),Span deviation,Mass concentration (μg/m³),Mass concentration (μg/m³),Mass concentration (μg/m³)
DateTimeUTC,F1_M11,P_M11,Q1_M11,Q2_M11,T1_M11,T2_M11,T3_M11,T4_M11,T5_M11,U1_M11,ZSPAN_M11,X0_M11,X2_M11,X1_M11
2022-01-06 20:00:00,,0820.9,4.99,0.00,21.9,22.2,00.0,30.9,23.7,05.5,0001.8,0012.32,0008.00,0007.24
2022-01-06 20:01:00,,0820.7,5.01,0.00,21.9,22.0,00.0,30.9,23.7,05.5,0001.9,0012.21,0007.95,0007.20
2022-01-06 20:02:00,,0820.6,4.99,0.00,21.9,21.7,00.0,30.9,23.6,05.4,0002.0,0012.36,0007.97,0007.18
2022-01-06 20:03:00,,0820.6,5.00,0.00,21.9,21.4,00.0,30.9,23.5,05.4,0001.6,0012.38,0007.96,0007.17
2022-01-06 20:04:00,,0820.5,5.01,0.00,21.9,21.3,00.0,30.9,23.5,05.4,0001.8,0012.28,0007.90,0007.14
2022-01-06 20:05:00,,0820.3,5.00,0.00,21.9,21.2,00.0,30.9,23.5,05.5,0001.9,0012.17,0007.86,0007.11
2022-01-06 20:06:00,,0820.2,5.00,0.00,21.8,21.2,00.0,30.9,23.5,05.5,0002.1,0012.16,0007.85,0007.09
2022-01-06 20:07:00,,0820.1,5.01,0.00,21.8,21.2,00.0,30.9,23.4,05.5,0002.0,0012.12,0007.81,0007.09
2022-01-06 20:08:00,,0820.0,4.99,0.00,21.8,21.2,00.0,30.9,23.4,05.5,0001.8,0012.24,0007.82,0007.09
2022-01-06 20:09:00,,0819.9,5.01,0.00,21.8,21.1,00.0,30.9,23.4,05.5,0001.6,0012.25,0007.79,0007.06
2022-01-06 20:10:00,,0820.0,4.99,0.00,21.8,20.9,00.0,30.8,23.4,05.5,0001.6,0012.24,0007.79,0007.05
2022-01-06 20:11:00,,0820.1,5.01,0.00,21.7,20.8,00.0,30.8,23.3,05.5,0001.4,0012.40,0007.86,0007.09
2022-01-06 20:12:00,,0820.0,5.01,0.00,21.7,20.8,00.0,30.8,23.3,05.6,0001.2,0012.71,0007.90,0007.13
2022-01-06 20:13:00,,0819.9,4.99,0.00,21.7,20.7,00.0,30.8,23.3,05.5,0001.1,0012.99,0007.91,0007.17
2022-01-06 20:14:00,,0819.9,4.99,0.00,21.7,20.7,00.0,30.8,23.2,05.6,0001.3,0012.93,0007.93,0007.20
2022-01-06 20:15:00,,0820.1,5.00,0.00,21.7,21.5,00.0,30.8,23.4,05.6,0001.4,0013.11,0008.01,0007.25
2022-01-06 20:16:00,,0820.2,4.99,0.00,21.9,22.6,00.0,30.8,23.8,05.6,0001.4,0013.17,0008.05,0007.31
2022-01-06 20:17:00,,0820.3,5.01,0.00,22.0,22.7,00.0,30.9,24.0,05.5,0001.3,0013.18,0008.10,0007.37
2022-01-06 20:18:00,,0820.4,5.00,0.00,22.0,22.4,00.0,30.9,23.9,05.5,0001.2,0013.35,0008.18,0007.44
2022-01-06 20:19:00,,0820.3,5.00,0.00,22.0,22.1,00.0,30.9,23.9,05.5,0001.0,0013.31,0008.24,0007.50
2022-01-06 20:20:00,,0820.3,5.01,0.00,22.0,21.9,00.0,30.9,23.8,05.5,0001.3,0013.50,0008.34,0007.59
2022-01-06 20:21:00,,0820.2,4.99,0.00,22.0,21.8,00.0,30.9,23.8,05.5,0001.3,0013.64,0008.37,0007.62
2022-01-06 20:22:00,,0820.0,5.00,0.00,22.0,21.7,00.0,30.9,23.8,05.6,0001.5,0013.57,0008.37,0007.63
2022-01-06 20:23:00,,0819.9,4.99,0.00,22.0,21.6,00.0,30.9,23.8,05.6,0001.7,0013.31,0008.36,0007.62
2022-01-06 20:24:00,,0819.9,5.01,0.00,22.0,21.6,00.0,31.0,23.8,05.5,0001.5,0012.94,0008.32,0007.56
2022-01-06 20:25:00,,0820.0,4.99,0.00,22.0,21.5,00.0,31.0,23.8,05.4,0001.1,0012.97,0008.25,0007.49
2022-01-06 20:26:00,,0819.9,5.01,0.00,22.0,21.5,00.0,31.0,23.8,05.4,0001.3,0012.94,0008.16,0007.41
2022-01-06 20:27:00,,0819.9,5.00,0.00,22.0,21.5,00.0,31.0,23.8,05.4,0001.5,0012.93,0008.13,0007.35
2022-01-06 20:28:00,,0820.0,4.98,0.00,22.0,21.4,00.0,31.0,23.8,05.4,0001.6,0012.90,0008.08,0007.28
2022-01-06 20:29:00,,0820.0,5.00,0.00,22.0,21.4,00.0,31.0,23.8,05.4,0001.6,0012.75,0008.00,0007.19
2022-01-06 20:30:00,,0820.0,5.00,0.00,22.0,21.4,00.0,31.0,23.8,05.5,0001.8,0012.52,0007.90,0007.11
2022-01-06 20:31:00,,0819.9,4.99,0.00,22.0,21.4,00.0,31.0,23.8,05.5,0001.9,0012.16,0007.74,0007.01
2022-01-06 20:32:00,,0819.8,5.00,0.00,22.0,21.4,00.0,31.0,23.8,05.5,0001.8,0011.96,0007.65,0006.93
2022-01-06 20:33:00,,0819.7,5.01,0.00,22.0,21.3,00.0,31.0,23.8,05.4,0001.9,0011.84,0007.56,0006.86
2022-01-06 20:34:00,,0819.7,4.99,0.00,22.0,21.3,00.0,31.0,23.8,05.4,0001.9,0011.73,0007.50,0006.81
2022-01-06 20:35:00,,0819.9,5.01,0.00,22.0,21.3,00.0,31.0,23.8,05.5,0001.8,0011.79,0007.49,0006.80
2022-01-06 20:36:00,,0820.0,5.00,0.00,22.0,21.3,00.0,31.0,23.8,05.5,0001.8,0012.46,0007.49,0006.82
2022-01-06 20:37:00,,0819.9,5.01,0.00,22.0,21.4,00.0,31.0,23.8,05.5,0001.7,0012.29,0007.50,0006.83
2022-01-06 20:38:00,,0819.9,4.99,0.00,22.0,21.4,00.0,31.0,23.8,05.5,0001.8,0012.48,0007.50,0006.84
2022-01-06 20:39:00,,0819.8,5.01,0.00,22.1,22.0,00.0,31.0,23.9,05.5,0001.5,0012.58,0007.50,0006.85
2022-01-06 20:40:00,,0819.7,4.99,0.00,22.2,22.9,00.0,31.1,24.2,05.4,0001.4,0012.62,0007.53,0006.88
2022-01-06 20:41:00,,0819.5,5.00,0.00,22.3,23.0,00.0,31.1,24.3,05.4,0001.3,0012.81,0007.57,0006.90
2022-01-06 20:42:00,,0819.4,5.00,0.00,22.4,22.7,00.0,31.1,24.3,05.3,0001.6,0012.90,0007.62,0006.91
2022-01-06 20:43:00,,0819.4,5.00,0.00,22.4,22.5,00.0,31.2,24.3,05.4,0001.7,0012.94,0007.65,0006.92
2022-01-06 20:44:00,,0819.4,4.99,0.00,22.4,22.4,00.0,31.2,24.2,05.3,0001.7,0012.93,0007.66,0006.95
2022-01-06 20:45:00,,0819.5,5.00,0.00,22.4,22.2,00.0,31.2,24.2,05.4,0002.1,0012.97,0007.68,0006.96
2022-01-06 20:46:00,,0819.6,5.00,0.00,22.4,22.1,00.0,31.2,24.2,05.4,0002.6,0012.96,0007.71,0006.99
2022-01-06 20:47:00,,0819.7,5.00,0.00,22.4,22.0,00.0,31.2,24.2,05.4,0002.9,0012.32,0007.82,0007.03
2022-01-06 20:48:00,,0819.6,5.01,0.00,22.4,21.9,00.0,31.2,24.1,05.4,0003.0,0012.55,0007.86,0007.07
2022-01-06 20:49:00,,0819.4,4.99,0.00,22.4,21.9,00.0,31.2,24.1,05.5,0002.9,0012.80,0007.90,0007.12
2022-01-06 20:50:00,,0819.4,5.01,0.00,22.4,21.8,00.0,31.3,24.1,05.5,0003.2,0012.88,0007.99,0007.17
2022-01-06 20:51:00,,0819.3,5.01,0.00,22.4,21.8,00.0,31.3,24.1,05.4,0003.4,0012.87,0008.00,0007.20
2022-01-06 20:52:00,,0819.3,4.99,0.00,22.3,21.8,00.0,31.3,24.1,05.5,0003.2,0012.85,0008.05,0007.23
2022-01-06 20:53:00,,0819.2,5.01,0.00,22.3,21.7,00.0,31.3,24.1,05.5,0002.9,0013.01,0008.11,0007.26
2022-01-06 20:54:00,,0819.3,5.00,0.00,22.3,21.7,00.0,31.3,24.1,05.5,0003.0,0013.01,0008.11,0007.28
2022-01-06 20:55:00,,0819.2,4.99,0.00,22.3,21.7,00.0,31.3,24.1,05.5,0002.9,0013.18,0008.18,0007.29
2022-01-06 20:56:00,,0819.3,5.01,0.00,22.3,21.6,00.0,31.3,24.1,05.6,0002.5,0013.31,0008.23,0007.31
2022-01-06 20:57:00,,0819.3,5.00,0.00,22.3,21.6,00.0,31.3,24.1,05.5,0002.3,0014.42,0008.30,0007.35
2022-01-06 20:58:00,,0819.3,5.01,0.00,22.3,21.6,00.0,31.3,24.0,05.5,0002.2,0014.36,0008.27,0007.37
2022-01-06 20:59:00,,0819.4,4.99,0.00,22.3,21.5,00.0,31.3,24.0,05.5,0002.0,0014.20,0008.29,0007.37
